x

Buoy E01 - Central Maine Shelf (44032) Wave Buoy

9:04 - Tue 16th Sep 2014 All times are EDT. -4 hours from GMT.

  • Sig Wave height 1.3ft
  • Peak Period 4s
  • Wind
    7mph, 9mph gusts
  • Sea Temp 58°f
  • Aire Temp 56°f
  • Sea Pressure 1016.4mb
  • Buoy E01 - Central Maine Shelf
  • Buoy E01 - Central Maine Shelf

More Historic Weather Station data

Upgrade to MSW Pro to gain access to the past 30 days of data for over 8000 Wavebouys and Weather Stations around the globe.

Join Pro

Comparision Forecast

View Surf forecast
   
mar 09/16 9:04 1.3ft 4s 7 9 mph 1016.4mb 58f 56f
8:04 1.3ft 3s 7 9 mph 1016.5mb 58f 57f
7:04 2ft 8s 7 9 mph 1016.8mb 58f 58f
6:04 2ft 8s 11
mph
1016.7mb 58f 59f
5:04 2ft 6s 9 11 mph 1016.3mb 57f 59f
4:04 1.3ft 4s 9 11 mph 1016.4mb 58f 59f
3:04 1.3ft 3s 11 13 mph 1017.5mb 58f 59f
2:04 1ft 3s 11 13 mph 1018.3mb 57f 59f
1:04 1ft 3s 9 11 mph 1018.5mb 57f 59f
12:04 1ft 3s 9
mph
1018.2mb 57f 59f
lun 09/15 11:04 1ft 3s 9
mph
1018.6mb 57f 59f
10:04 1ft 3s 9
mph
1018.9mb 57f 59f
9:04 0.7ft  -  9 11 mph 1019.4mb 58f 59f
7:04 1.3ft 8s 9 11 mph 1019mb 58f 58f
6:04 0.7ft  -  9 11 mph 1019.1mb 59f 58f
5:04 1ft 8s 9 11 mph 1019.1mb 59f 56f
4:04 0.3ft  -  9 11 mph 1019.6mb 59f 56f
3:04 1.3ft 8s 7 9 mph 1019.8mb 60f 55f
2:04 1.3ft 6s 4 9 mph 1020.5mb 60f 55f
1:04 1.3ft 6s 4 7 mph 1021.2mb 60f 54f
12:04 1.6ft 6s 2 4 mph 1021.9mb 59f 54f
11:04 1.6ft 3s 4 7 mph 1022.5mb 59f 53f
10:04 1.3ft 3s 9 11 mph 1022.8mb 57f 52f
9:04 1.3ft 8s 9 11 mph 1022.8mb 57f 52f
8:04 1ft 3s 7 9 mph - 57f 53f
6:04 2ft 8s 11 13 mph 1023mb 57f 52f
5:04 2.5ft 8s 9 11 mph 1022.4mb 57f 53f
4:04 1.6ft 4s 11 13 mph 1021.9mb 57f 53f
3:04 2ft 4s 11 13 mph 1021.9mb 57f 53f
2:04 2.5ft 4s 16 18 mph 1022.1mb 57f 53f
1:04 3ft 8s 16 18 mph 1022.5mb 57f 53f
12:04 2.5ft 4s 18 20 mph 1022.4mb 57f 54f
dom 09/14 11:04 3ft 4s 20 22 mph 1022.4mb 57f 55f
10:04 2.5ft 4s 18 20 mph 1022.4mb 57f 55f
9:04 1.6ft 3s 18 20 mph 1022.1mb 58f 56f
8:04 1.3ft 6s 13 16 mph 1021.7mb 58f 58f
7:04 1.3ft 6s 11 13 mph 1021.2mb 58f 59f
6:04 1.3ft 6s 7 9 mph 1021mb 58f 60f
5:04 1.6ft 6s 4 7 mph 1020.8mb 58f 60f
4:04  -   -  9 11 mph 1020.4mb - 59f
3:04 2ft 3s 11 13 mph 1020.1mb 58f 58f
2:04 2ft 3s 11 13 mph 1020.5mb 58f 57f
1:04 2.5ft 4s 13 16 mph 1020.9mb 58f 56f
12:04 2.5ft 3s 16 18 mph 1021mb 58f 55f
11:04 2.5ft 4s 18 22 mph 1021.2mb 58f 54f
10:04 3ft 4s 20 22 mph 1021.5mb 58f 54f
9:04 3.5ft 4s 22 25 mph 1021.4mb 58f 54f
8:04 3ft 4s 18 22 mph 1021mb 58f 54f
7:04 3ft 5s 18 22 mph 1020.2mb 58f 55f
6:04 3.5ft 6s 18 22 mph 1019.1mb 58f 56f
5:04 3ft 5s 16 18 mph 1018.4mb 58f 57f
4:04 3ft 6s 13 16 mph 1017.8mb 58f 57f
3:04 3.5ft 6s 13 16 mph 1017.6mb 58f 58f
2:04 3.5ft 5s 7 9 mph 1017.5mb 58f 58f
1:04 3ft 5s 4
mph
1017.3mb 58f 58f
12:04 2.5ft 5s 7
mph
1017.9mb 58f 58f
sáb 09/13 11:04 2.5ft 5s 4 7 mph 1018.6mb 58f 58f
10:04 2.5ft 5s 4
mph
1018.9mb 58f 59f
9:04 2.5ft 8s 9 11 mph 1019mb 58f 58f
8:04 2.5ft 5s 11 13 mph 1020.3mb 58f 58f
7:04 2.5ft 4s 18 20 mph 1020.6mb 58f 57f
6:04 3ft 5s 11 13 mph 1021.7mb 58f 57f
5:04 3ft 5s 13
mph
1021.9mb 58f 57f
4:04 3ft 5s 16 20 mph 1021.6mb 58f 56f
3:04 3ft 5s 16 20 mph 1022.3mb 58f 55f
2:04 3.5ft 5s 18 20 mph 1023mb 58f 55f
1:04 3.5ft 5s 16 18 mph 1024.1mb 58f 55f
12:04 3.5ft 5s 16 18 mph 1024.3mb 58f 55f
11:04 3.5ft 5s 16 18 mph 1025.2mb 58f 55f
10:04 2.5ft 4s 16 18 mph 1025.8mb 57f 55f
9:04 2.5ft 4s 16 20 mph 1025.7mb 57f 55f
8:04 2.5ft 4s 16 18 mph 1025.7mb 57f 55f
7:04 2.5ft 4s 16 20 mph 1025.3mb 57f 55f
6:04 3ft 5s 18 22 mph 1024.8mb 57f 55f
5:04 2.5ft 4s 18 22 mph 1024.3mb 58f 55f
4:04 2.5ft 4s 18 22 mph 1024mb 58f 55f
3:04 2ft 4s 18 20 mph 1024.1mb 58f 55f
2:04 2.5ft 3s 18 22 mph 1024mb 58f 55f
1:04 2ft 4s 18 22 mph 1023.7mb 58f 56f
12:04 2ft 3s 18 20 mph 1023.4mb 59f 57f
vie 09/12 11:04 2ft 3s 16 18 mph 1022.8mb 59f 58f
10:04 1.3ft 3s 16 20 mph 1022.3mb 59f 58f
9:04 1.3ft 8s 16 18 mph 1021.7mb 60f 59f
8:04 1.3ft 8s 7 9 mph 1020.9mb 60f 60f
7:04 1.3ft 8s 9 11 mph 1020.1mb 60f 61f
6:04 1.3ft 6s 4
mph
1019.2mb 61f 64f
5:04 1.6ft 8s 2
mph
1018.7mb 60f 65f
4:04 1.6ft 8s 2 4 mph 1018.2mb 60f 61f
3:04 1.6ft 8s  -  2 mph 1017.8mb 59f 63f